| time (UTC) | temp F | wind direction | speed MPH | gust MPH | rain 1hr in | rain 24hr in | rain mn in | humidity % | barometer mb |
| 20260903023014 | 66 | 29 | 0.0 | 0.0 | 0.00 | 0.12 | 0.12 | 72 | 1012.0 |
| 20260903021514 | 67 | 28 | 0.0 | 0.0 | 0.00 | 0.12 | 0.12 | 69 | 1011.9 |
| 20260903020014 | 67 | 29 | 0.0 | 0.0 | 0.00 | 0.12 | 0.12 | 68 | 1011.8 |
| 20260903014514 | 67 | 29 | 0.0 | 0.0 | 0.00 | 0.12 | 0.12 | 65 | 1011.6 |
| 20260903013025 | 68 | 29 | 0.0 | 0.0 | 0.00 | 0.12 | 0.12 | 66 | 1011.3 |
| 20260903011516 | 68 | 29 | 0.0 | 1.0 | 0.00 | 0.12 | 0.12 | 65 | 1010.9 |
| 20260903010027 | 69 | 29 | 0.0 | 1.0 | 0.00 | 0.12 | 0.12 | 64 | 1010.7 |
| 20260903004513 | 70 | 29 | 0.0 | 0.0 | 0.00 | 0.12 | 0.12 | 63 | 1010.6 |
| 20260903003016 | 71 | 29 | 0.0 | 0.0 | 0.00 | 0.12 | 0.12 | 62 | 1010.7 |
| 20260903001515 | 72 | 29 | 0.0 | 0.0 | 0.00 | 0.12 | 0.12 | 61 | 1010.7 |
| 20260903000013 | 73 | 29 | 0.0 | 0.0 | 0.00 | 0.12 | 0.12 | 59 | 1010.7 |
| 20260902234520 | 74 | 29 | 0.0 | 0.0 | 0.00 | 0.12 | 0.12 | 56 | 1010.7 |
| 20260902233013 | 74 | 29 | 0.0 | 0.0 | 0.00 | 0.12 | 0.12 | 54 | 1010.7 |
| 20260902231613 | 75 | 29 | 0.0 | 0.0 | 0.00 | 0.12 | 0.12 | 53 | 1010.6 |
| 20260902230012 | 76 | 29 | 0.0 | 1.0 | 0.00 | 0.12 | 0.12 | 52 | 1010.5 |
| 20260902224518 | 76 | 29 | 0.0 | 1.0 | 0.00 | 0.12 | 0.12 | 51 | 1010.7 |
| 20260902223015 | 77 | 29 | 0.0 | 3.0 | 0.00 | 0.12 | 0.12 | 51 | 1010.7 |
| 20260902221628 | 77 | 29 | 0.0 | 4.0 | 0.00 | 0.12 | 0.12 | 50 | 1010.7 |
| 20260902220035 | 78 | 28 | 0.0 | 1.0 | 0.00 | 0.12 | 0.12 | 49 | 1010.7 |
| 20260902214513 | 78 | 28 | 0.0 | 2.0 | 0.00 | 0.12 | 0.12 | 48 | 1010.7 |
| 20260902213012 | 79 | 28 | 0.0 | 3.0 | 0.00 | 0.12 | 0.12 | 49 | 1010.7 |
| 20260902211612 | 79 | 10 | 0.0 | 2.0 | 0.00 | 0.12 | 0.12 | 49 | 1010.7 |
| 20260902210017 | 79 | 24 | 0.0 | 3.0 | 0.00 | 0.12 | 0.12 | 48 | 1010.8 |
| 20260902204508 | 79 | 17 | 0.0 | 3.0 | 0.00 | 0.12 | 0.12 | 49 | 1010.8 |
| 20260902203005 | 78 | 250 | 1.0 | 4.0 | 0.00 | 0.12 | 0.12 | 50 | 1010.8 |
| 20260902201514 | 78 | 264 | 1.0 | 3.0 | 0.00 | 0.12 | 0.12 | 49 | 1011.1 |
| 20260902200003 | 78 | 296 | 1.0 | 3.0 | 0.00 | 0.12 | 0.12 | 51 | 1011.0 |
| 20260902194502 | 77 | 13 | 0.0 | 2.0 | 0.00 | 0.12 | 0.12 | 58 | 1011.1 |
| 20260902193106 | 77 | 280 | 1.0 | 3.0 | 0.00 | 0.12 | 0.12 | 58 | 1011.2 |
| 20260902191624 | 76 | 279 | 1.0 | 5.0 | 0.00 | 0.12 | 0.12 | 59 | 1011.2 |
| 20260902190056 | 76 | 314 | 0.0 | 4.0 | 0.00 | 0.12 | 0.12 | 60 | 1011.2 |
| 20260902184553 | 75 | 25 | 2.0 | 5.0 | 0.00 | 0.12 | 0.12 | 59 | 1011.4 |
| 20260902183110 | 75 | 51 | 1.0 | 4.0 | 0.00 | 0.12 | 0.12 | 62 | 1011.4 |
| 20260902181555 | 74 | 39 | 1.0 | 4.0 | 0.00 | 0.12 | 0.12 | 61 | 1011.4 |
| 20260902180048 | 74 | 5 | 0.0 | 3.0 | 0.00 | 0.12 | 0.12 | 64 | 1011.5 |
| 20260902174546 | 73 | 360 | 0.0 | 3.0 | 0.00 | 0.12 | 0.12 | 67 | 1011.6 |
| 20260902173044 | 73 | 331 | 0.0 | 2.0 | 0.00 | 0.12 | 0.12 | 67 | 1011.6 |
| 20260902171551 | 72 | 21 | 0.0 | 6.0 | 0.00 | 0.12 | 0.12 | 68 | 1011.9 |
| 20260902170039 | 72 | 23 | 1.0 | 5.0 | 0.00 | 0.12 | 0.12 | 69 | 1011.8 |
| 20260902164541 | 71 | 328 | 0.0 | 5.0 | 0.00 | 0.12 | 0.12 | 72 | 1011.8 |
| 20260902163038 | 70 | 28 | 0.0 | 3.0 | 0.00 | 0.12 | 0.12 | 75 | 1011.7 |
| 20260902161529 | 68 | 32 | 0.0 | 1.0 | 0.00 | 0.12 | 0.12 | 78 | 1011.4 |
| 20260902160029 | 67 | 32 | 0.0 | 1.0 | 0.00 | 0.12 | 0.12 | 79 | 1011.3 |
| 20260902154531 | 67 | 32 | 0.0 | 3.0 | 0.00 | 0.12 | 0.12 | 80 | 1011.4 |
| 20260902153042 | 66 | 327 | 0.0 | 2.0 | 0.00 | 0.12 | 0.12 | 82 | 1011.3 |
| 20260902151524 | 65 | 325 | 0.0 | 1.0 | 0.00 | 0.12 | 0.12 | 81 | 1011.0 |
| 20260902150023 | 65 | 325 | 0.0 | 3.0 | 0.00 | 0.12 | 0.12 | 82 | 1011.1 |
| 20260902144522 | 64 | 17 | 0.0 | 1.0 | 0.00 | 0.12 | 0.12 | 83 | 1011.3 |
| 20260902143022 | 64 | 17 | 0.0 | 1.0 | 0.00 | 0.12 | 0.12 | 85 | 1011.6 |
| 20260902141521 | 63 | 18 | 1.0 | 4.0 | 0.00 | 0.12 | 0.12 | 85 | 1011.7 |
| 20260902140021 | 62 | 48 | 2.0 | 5.0 | 0.00 | 0.12 | 0.12 | 86 | 1012.1 |
| 20260902134521 | 62 | 25 | 1.0 | 3.0 | 0.00 | 0.12 | 0.12 | 86 | 1012.5 |
| 20260902133020 | 61 | 33 | 0.0 | 3.0 | 0.00 | 0.12 | 0.12 | 86 | 1012.3 |
| 20260902131535 | 61 | 323 | 0.0 | 1.0 | 0.00 | 0.12 | 0.12 | 86 | 1012.5 |
| 20260902130024 | 61 | 315 | 0.0 | 0.0 | 0.00 | 0.12 | 0.12 | 86 | 1012.3 |
| 20260902124520 | 61 | 270 | 0.0 | 0.0 | 0.01 | 0.12 | 0.12 | 85 | 1012.0 |
| 20260902123020 | 61 | 270 | 0.0 | 1.0 | 0.01 | 0.12 | 0.12 | 85 | 1012.0 |
| 20260902121518 | 61 | 270 | 0.0 | 0.0 | 0.02 | 0.12 | 0.12 | 85 | 1011.8 |
| 20260902120020 | 61 | 270 | 0.0 | 0.0 | 0.02 | 0.12 | 0.12 | 85 | 1011.6 |
| 20260902114519 | 61 | 270 | 0.0 | 1.0 | 0.03 | 0.11 | 0.11 | 85 | 1011.6 |
| 20260902113017 | 60 | 270 | 0.0 | 1.0 | 0.07 | 0.11 | 0.11 | 85 | 1011.3 |
| 20260902111518 | 61 | 270 | 0.0 | 4.0 | 0.10 | 0.10 | 0.10 | 84 | 1010.8 |
| 20260902110023 | 61 | 272 | 0.0 | 2.0 | 0.10 | 0.10 | 0.10 | 84 | 1010.3 |
| 20260902104513 | 61 | 273 | 2.0 | 10.0 | 0.08 | 0.08 | 0.08 | 85 | 1011.1 |
| 20260902103010 | 60 | 44 | 0.0 | 2.0 | 0.05 | 0.05 | 0.05 | 76 | 1014.2 |
| 20260902101507 | 61 | 44 | 0.0 | 3.0 | 0.00 | 0.00 | 0.00 | 71 | 1014.5 |
| 20260902100006 | 61 | 44 | 0.0 | 2.0 | 0.00 | 0.00 | 0.00 | 69 | 1014.2 |
| 20260902094501 | 62 | 44 | 0.0 | 1.0 | 0.00 | 0.00 | 0.00 | 66 | 1013.6 |
| 20260902093104 | 63 | 44 | 0.0 | 0.0 | 0.00 | 0.00 | 0.00 | 65 | 1013.1 |
| 20260902091553 | 63 | 44 | 0.0 | 0.0 | 0.00 | 0.00 | 0.00 | 63 | 1012.3 |
| 20260902090052 | 63 | 44 | 0.0 | 0.0 | 0.00 | 0.00 | 0.00 | 64 | 1011.9 |
| 20260902084551 | 63 | 44 | 0.0 | 0.0 | 0.00 | 0.00 | 0.00 | 64 | 1011.8 |
| 20260902083051 | 63 | 44 | 0.0 | 0.0 | 0.00 | 0.00 | 0.00 | 65 | 1011.8 |
| 20260902081550 | 63 | 44 | 0.0 | 0.0 | 0.00 | 0.00 | 0.00 | 64 | 1011.8 |
| 20260902074557 | 63 | 44 | 0.0 | 1.0 | 0.00 | 0.00 | 0.00 | 63 | 1011.4 |
| 20260902073046 | 63 | 44 | 0.0 | 0.0 | 0.00 | 0.00 | 0.00 | 63 | 1011.1 |
| 20260902071544 | 64 | 44 | 0.0 | 0.0 | 0.00 | 0.00 | 0.00 | 63 | 1011.2 |
| 20260902070043 | 63 | 44 | 0.0 | 0.0 | 0.00 | 0.00 | 0.00 | 62 | 1011.3 |
| 20260902064544 | 64 | 44 | 0.0 | 0.0 | 0.00 | 0.00 | 0.00 | 62 | 1011.7 |
| 20260902063039 | 64 | 44 | 0.0 | 0.0 | 0.00 | 0.00 | 0.00 | 62 | 1011.7 |
| 20260902061554 | 64 | 44 | 0.0 | 0.0 | 0.00 | 0.00 | 0.00 | 63 | 1011.8 |
| 20260902060049 | 64 | 44 | 0.0 | 0.0 | 0.00 | 0.00 | 0.00 | 62 | 1011.8 |
| 20260902054544 | 64 | 44 | 0.0 | 0.0 | 0.00 | 0.00 | 0.00 | 62 | 1011.8 |
| 20260902053038 | 64 | 44 | 0.0 | 0.0 | 0.00 | 0.00 | 0.00 | 62 | 1011.8 |
| 20260902051533 | 65 | 44 | 0.0 | 0.0 | 0.00 | 0.00 | 0.00 | 61 | 1011.7 |
| 20260902050033 | 65 | 44 | 0.0 | 0.0 | 0.00 | 0.00 | 0.00 | 61 | 1011.7 |
| 20260902044537 | 65 | 44 | 0.0 | 0.0 | 0.00 | 0.00 | 0.00 | 61 | 1011.8 |
| 20260902043030 | 66 | 44 | 0.0 | 0.0 | 0.00 | 0.00 | 0.00 | 61 | 1011.8 |
| 20260902041535 | 66 | 44 | 0.0 | 0.0 | 0.00 | 0.00 | 0.00 | 61 | 1011.8 |
| 20260902040029 | 66 | 44 | 0.0 | 0.0 | 0.00 | 0.00 | 0.00 | 59 | 1011.8 |
| 20260902034530 | 67 | 44 | 0.0 | 0.0 | 0.00 | 0.00 | 0.00 | 59 | 1011.8 |
| 20260902033028 | 67 | 44 | 0.0 | 0.0 | 0.00 | 0.00 | 0.00 | 59 | 1011.6 |
| 20260902031528 | 67 | 44 | 0.0 | 0.0 | 0.00 | 0.00 | 0.00 | 59 | 1011.5 |
| 20260902030029 | 68 | 44 | 0.0 | 0.0 | 0.00 | 0.00 | 0.00 | 57 | 1011.3 |
| 20260902024532 | 68 | 44 | 0.0 | 0.0 | 0.00 | 0.00 | 0.00 | 55 | 1011.1 |